This is the latest recevied weather packets stored in our database for station/object OK2ZAW-19. If no packets are shown the sender has not sent any weather packets the latest 10 day(s).
| Time | Temp. | Humidity | Pressure | Rain* | Wind** | Luminosity | Snow |
|---|---|---|---|---|---|---|---|
| 1777461637 | 12.78° C | 40% | 1023.6 hPa | - | - | 337 W/m² | - |
| 1777461326 | 12.78° C | 41% | 1023.7 hPa | - | - | 337 W/m² | - |
| 1777460705 | 12.22° C | 38% | 1023.5 hPa | - | - | 337 W/m² | - |
| 1777460394 | 12.22° C | 37% | 1023.6 hPa | - | - | 337 W/m² | - |
| 1777460084 | 12.22° C | 37% | 1023.6 hPa | - | - | 337 W/m² | - |
| 1777459773 | 12.22° C | 37% | 1023.6 hPa | - | - | 337 W/m² | - |
| 1777459462 | 12.22° C | 38% | 1023.6 hPa | - | - | 337 W/m² | - |
| 1777459151 | 11.11° C | 37% | 1023.7 hPa | - | - | 337 W/m² | - |
| 1777458841 | 11.67° C | 38% | 1023.7 hPa | - | - | 337 W/m² | - |
| 1777458530 | 11.11° C | 38% | 1023.7 hPa | - | - | 335 W/m² | - |
| 1777458220 | 11.67° C | 40% | 1023.7 hPa | - | - | 337 W/m² | - |
| 1777457598 | 10.56° C | 39% | 1023.8 hPa | - | - | 337 W/m² | - |
| 1777457288 | 10.56° C | 39% | 1023.9 hPa | - | - | 337 W/m² | - |
| 1777456977 | 10.56° C | 40% | 1023.9 hPa | - | - | 337 W/m² | - |
| 1777456667 | 10.56° C | 39% | 1023.9 hPa | - | - | 337 W/m² | - |
| 1777456356 | 10.56° C | 41% | 1023.9 hPa | - | - | 337 W/m² | - |
| 1777456046 | 10° C | 38% | 1023.9 hPa | - | - | 337 W/m² | - |
| 1777455425 | 9.44° C | 42% | 1023.9 hPa | - | - | 337 W/m² | - |
| 1777455114 | 9.44° C | 42% | 1024 hPa | - | - | 337 W/m² | - |
| 1777454804 | 8.89° C | 42% | 1023.9 hPa | - | - | 337 W/m² | - |
| 1777454494 | 8.89° C | 42% | 1024.1 hPa | - | - | 337 W/m² | - |
| 1777454183 | 8.33° C | 43% | 1024.1 hPa | - | - | 337 W/m² | - |
| 1777453873 | 8.33° C | 44% | 1024 hPa | - | - | 337 W/m² | - |
| 1777453563 | 7.78° C | 44% | 1024 hPa | - | - | 337 W/m² | - |
| 1777453253 | 7.78° C | 44% | 1024 hPa | - | - | 337 W/m² | - |
* Rain since midnight (hover to see other rain measurements)
** Current wind speed in m/s (hover to see current wind gust speed)